Hourly Data Report for October 04, 2017

All times are specified in Local Standard Time (LST). Add 1 hour to adjust for Daylight Saving Time where and when it is observed.

PORT HARDY A
BRITISH COLUMBIA

50°40'50.000" N
127°22'00.000" W
21.60 m
1026271
71109
YZT

Download Data

Hourly Data (October 2017)
Hourly Data Report for October 4, 2017
Temp Definition
°C
Dew Point Temp Definition
°C
Rel Hum Definition
%
Wind Dir Definition
10's deg

Wind Spd Definition
km/h
Visibility Definition
km
Stn Press Definition
kPa
Hmdx Definition


Wind Chill Definition


Weather Definition


TIME
00:00 Legend Double Dagger 1.5 0.7 94 22 4 24.1 102.20     LegendNANA
01:00 Legend Double Dagger 1.0 0.2 95 22 3 24.1 102.22     Clear
02:00 Legend Double Dagger 1.2 0.5 95 25 7 24.1 102.18     LegendNANA
03:00 Legend Double Dagger 0.8 0.1 95 23 7 24.1 102.15     LegendNANA
04:00 Legend Double Dagger 0.6 -0.1 95 20 5 24.1 102.11     Clear
05:00 Legend Double Dagger 0.1 -0.5 96 22 4 24.1 102.10     LegendNANA
06:00 Legend Double Dagger 0.4 -0.2 96 24 7 32.2 102.07     LegendNANA
07:00 Legend Double Dagger 0.1 -0.5 96 20 3 32.2 102.06     Clear
08:00 Legend Double Dagger 4.8 4.2 96 26 5 32.2 102.07     LegendNANA
09:00 Legend Double Dagger 8.2 4.8 79 3 5 32.2 102.07     LegendNANA
10:00 Legend Double Dagger 8.8 3.5 70 4 6 32.2 102.05     Clear
11:00 Legend Double Dagger 9.5 4.2 69 5 7 32.2 102.04     LegendNANA
12:00 Legend Double Dagger 10.3 4.6 68 5 7 32.2 102.00     LegendNANA
13:00 Legend Double Dagger 11.1 4.5 64 5 6 32.2 101.95     Clear
14:00 Legend Double Dagger 11.4 5.4 66 6 6 32.2 101.93     LegendNANA
15:00 Legend Double Dagger 13.2 5.6 60 36 3 32.2 101.93     LegendNANA
16:00 Legend Double Dagger 12.4 5.1 61 4 4 32.2 101.89     Mainly Clear
17:00 Legend Double Dagger 11.4 6.9 73 36 2 32.2 101.90     LegendNANA
18:00 Legend Double Dagger 8.1 5.8 86 36 1 32.2 101.92     LegendNANA
19:00 Legend Double Dagger 5.8 4.7 92 21 3 32.2 101.94     Clear
20:00 Legend Double Dagger 4.2 3.3 94 20 6 24.1 101.99     LegendNANA
21:00 Legend Double Dagger 3.2 2.4 94 20 6 24.1 101.97     LegendNANA
22:00 Legend Double Dagger 2.9 2.2 95 21 5 24.1 101.98     Clear
23:00 Legend Double Dagger 3.2 2.6 96 24 8 24.1 101.98     LegendNANA

Notes on Data Quality.

Legend

  • E = Estimated
  • M = Missing
  • NA = Not Available
  • ‡ = Partner data that is not subject to review by the National Climate Archives
Date modified: